Location: Meadowbank Aerodrome
(65.0250°N, 96.0705°W)
Time: 15:11:05
(UTC-06:00)

Cosmos 2221 - Visible Passes

Search period start: 01 February 2015 00:00
Search period end: 11 February 2015 00:00
Orbit: 597 x 620 km, 82.5° (Epoch: 31 January)

Date Brightness Start Highest point End Pass type
(mag) Time Alt. Az. Time Alt. Az. Time Alt. Az.
01 Feb 5.1 03:39:03 17° NNE 03:39:03 17° NNE 03:40:04 10° NNE visible
01 Feb 4.6 05:15:58 17° NNW 05:15:58 17° NNW 05:17:32 10° N visible
02 Feb 5.7 02:16:04 11° NNE 02:16:04 11° NNE 02:16:20 10° NNE visible
02 Feb 4.9 03:53:00 17° N 03:53:00 17° N 03:54:09 10° NNE visible
02 Feb 4.6 05:29:55 15° NNW 05:29:55 15° NNW 05:31:31 10° N visible
03 Feb 5.5 02:30:00 13° NNE 02:30:00 13° NNE 02:30:31 10° NNE visible
03 Feb 4.8 04:06:57 18° N 04:06:57 18° N 04:08:13 10° N visible
03 Feb 4.7 05:43:52 14° NNW 05:43:52 14° NNW 05:45:28 10° N visible
04 Feb 5.4 02:43:57 14° NNE 02:43:57 14° NNE 02:44:39 10° NNE visible
04 Feb 4.8 04:20:52 17° N 04:20:52 17° N 04:22:15 10° N visible
04 Feb 4.8 05:57:48 12° NNW 05:57:48 12° NNW 05:59:20 10° N visible
05 Feb 5.3 02:57:53 16° NNE 02:57:53 16° NNE 02:58:45 10° NNE visible
05 Feb 4.7 04:34:48 17° N 04:34:48 17° N 04:36:16 10° N visible
05 Feb 4.8 06:11:44 10° NNW 06:12:06 11° NNW 06:13:01 10° N visible
06 Feb 5.8 01:34:53 10° NNE 01:34:53 10° NNE 01:34:57 10° NNE visible
06 Feb 5.1 03:11:48 17° N 03:11:48 17° N 03:12:50 10° NNE visible
06 Feb 4.7 04:48:44 16° NNW 04:48:44 16° NNW 04:50:15 10° N visible
07 Feb 5.7 01:48:48 12° NNE 01:48:48 12° NNE 01:49:09 10° NNE visible
07 Feb 5.0 03:25:43 17° N 03:25:43 17° N 03:26:54 10° NNE visible
07 Feb 4.8 05:02:39 14° NNW 05:02:39 14° NNW 05:04:13 10° N visible
08 Feb 5.5 02:02:42 14° NNE 02:02:42 14° NNE 02:03:17 10° NNE visible
08 Feb 4.9 03:39:38 17° N 03:39:38 17° N 03:40:56 10° N visible
08 Feb 4.8 05:16:33 13° NNW 05:16:33 13° NNW 05:18:07 10° N visible
09 Feb 5.4 02:16:36 15° NNE 02:16:36 15° NNE 02:17:24 10° NNE visible
09 Feb 4.8 03:53:32 17° N 03:53:32 17° N 03:54:57 10° N visible
09 Feb 4.9 05:30:28 11° NNW 05:30:31 11° NNW 05:31:56 10° N visible
10 Feb 5.2 02:30:30 16° NNE 02:30:30 16° NNE 02:31:28 10° NNE visible
10 Feb 4.8 04:07:26 16° NNW 04:07:26 16° NNW 04:08:56 10° N visible
